This is the latest recevied weather packets stored in our database for station/object KB1FPD. If no packets are shown the sender has not sent any weather packets the latest 10 day(s).
| Time | Temp. | Humidity | Pressure | Rain* | Wind** | Luminosity | Snow |
|---|---|---|---|---|---|---|---|
| 1777866176 | 7.22° C | 59% | 1015.1 hPa | 0 mm | - | - | - |
| 1777865879 | 7.22° C | 60% | 1015.1 hPa | 0 mm | - | - | - |
| 1777865573 | 7.22° C | 60% | 1015.1 hPa | 0 mm | - | - | - |
| 1777865272 | 7.22° C | 60% | 1015.1 hPa | 0 mm | - | - | - |
| 1777864974 | 7.22° C | 61% | 1015.1 hPa | 0 mm | - | - | - |
| 1777864673 | 7.22° C | 59% | 1015.1 hPa | 0 mm | - | - | - |
| 1777864373 | 7.78° C | 59% | 1015.2 hPa | 0 mm | - | - | - |
| 1777864071 | 7.78° C | 58% | 1014.9 hPa | 0 mm | - | - | - |
| 1777863769 | 7.78° C | 59% | 1015.2 hPa | 0 mm | - | - | - |
| 1777863465 | 7.78° C | 58% | 1015.1 hPa | 0 mm | - | - | - |
| 1777863162 | 7.78° C | 57% | 1015 hPa | 0 mm | - | - | - |
| 1777862862 | 7.78° C | 57% | 1015 hPa | 0 mm | - | - | - |
| 1777862561 | 7.78° C | 55% | 1015 hPa | 0 mm | - | - | - |
| 1777862260 | 7.78° C | 58% | 1015.1 hPa | 0 mm | - | - | - |
| 1777861963 | 7.78° C | 58% | 1015 hPa | 0 mm | - | - | - |
| 1777861656 | 7.78° C | 60% | 1014.9 hPa | 0 mm | - | - | - |
| 1777861358 | 8.33° C | 58% | 1014.9 hPa | 0 mm | - | - | - |
| 1777861061 | 8.33° C | 56% | 1014.9 hPa | 0 mm | - | - | - |
| 1777860758 | 8.33° C | 58% | 1014.9 hPa | 0 mm | - | - | - |
| 1777860460 | 8.33° C | 56% | 1014.9 hPa | 0 mm | - | - | - |
| 1777860155 | 8.33° C | 56% | 1014.8 hPa | 0 mm | - | - | - |
| 1777859855 | 8.33° C | 55% | 1014.8 hPa | 0 mm | - | - | - |
| 1777859555 | 8.89° C | 55% | 1014.7 hPa | 0 mm | - | - | - |
| 1777859254 | 8.89° C | 55% | 1014.7 hPa | 0 mm | - | - | - |
| 1777858951 | 8.89° C | 53% | 1014.8 hPa | 0 mm | - | - | - |
* Rain latest hour (hover to see other rain measurements)
** Current wind speed in m/s (hover to see current wind gust speed)